Flag for U.S.A. Weather past 2 weeks in Springfield, Missouri, U.S.A.

Now
60 °F

Sunny.


Feels Like: 60 °F
Forecast: 49 / 68 °F
Wind: 15 mph from South

Location: Springfield Regional Airport

Current Time: Oct 22, 2014 at 11:41:39 AM

Latest Report: Oct 22, 2014 at 10:52 AM


Visibility: 10 mi

Pressure: 30.24 "Hg

Humidity: 60%

Dew point: 46 °F

Location of SpringfieldLocation

Historic Weather in Springfield — Graph

°F

Springfield temperature yesterday

Maximum temperature yesterday: 74 °F (at 2:52 PM)
Minimum temperature yesterday: 45 °F (at 5:52 AM)
Average temperature yesterday: 59 °F

Past Weeks' High & Low Weather Summary

 TemperatureHumidityPressure
High83 °F (Oct 9, 1:52 PM)97% (Oct 9, 11:52 PM)30.24 "Hg (Oct 9, 11:52 PM)
Low41 °F (Oct 16, 2:52 AM)29% (Oct 15, 2:52 PM)29.44 "Hg (Oct 13, 2:52 PM)
Average59 °F75%29.95 "Hg
* Reported Oct 7 9:52 AM — Oct 22 9:52 AM, Springfield, Weather by CustomWeather, © 2014

Note: Actual official high and low records may vary slightly from our data, if they occured in-between our weather recording intervals... More about our weather records

Advertising

Springfield weather history for previous 24 hours

 ConditionsComfort  
Time TempWeatherWind HumidityBarometerVisibility
9:52 AM
Oct 22
57 °FSunny.16 mph64%30.24 "Hg10 mi
8:52 AM53 °FSunny.16 mph72%30.23 "Hg10 mi
7:52 AM51 °FClear.15 mph74%30.20 "Hg10 mi
6:52 AM51 °FClear.14 mph77%30.18 "Hg10 mi
5:52 AM51 °FClear.14 mph77%30.16 "Hg10 mi
4:52 AM52 °FClear.12 mph75%30.15 "Hg10 mi
3:52 AM52 °FClear.12 mph75%30.13 "Hg10 mi
2:52 AM53 °FClear.9 mph72%30.13 "Hg10 mi
1:52 AM54 °FClear.12 mph72%30.12 "Hg10 mi
12:52 AM52 °FClear.6 mph75%30.11 "Hg10 mi
11:52 PM
Oct 21
53 °FClear.6 mph72%30.11 "Hg10 mi
10:52 PM55 °FClear.3 mph69%30.11 "Hg10 mi
9:52 PM53 °FClear.No wind74%30.11 "Hg10 mi
8:52 PM54 °FClear.No wind72%30.10 "Hg10 mi
7:52 PM56 °FClear.No wind72%30.09 "Hg10 mi
6:52 PM65 °FSunny.3 mph49%30.07 "Hg10 mi
5:52 PM70 °FSunny.5 mph42%30.06 "Hg10 mi
4:52 PM74 °FSunny.No wind33%30.06 "Hg10 mi
3:52 PM73 °FSunny.No wind33%30.06 "Hg10 mi
2:52 PM74 °FSunny.6 mph35%30.07 "Hg10 mi
1:52 PM72 °FSunny.No wind33%30.09 "Hg10 mi
12:52 PM72 °FSunny.3 mph34%30.11 "Hg10 mi
11:52 AM70 °FSunny.No wind38%30.12 "Hg10 mi
Weather by CustomWeather, © 2014

See weather overviewHow to use our weather pages